NOAA-17
1 27453U 02032A 12019.54227445 .00000289 00000-0 14270-3 0 5671
2 27453 098.3551 054.0237 0010964 233.0413 126.9775 14.24384792497451
NOAA-18
1 28654U 05018A 12019.51003830 .00000375 00000-0 23122-3 0 430
2 28654 099.0263 336.5133 0013897 213.8762 146.1532 14.11593249343446
NOAA-19
1 33591U 09005A 12019.48445497 -.00000043 00000-0 39777-6 0 2320
2 33591 098.8506 321.2433 0014938 084.3212 275.9662 14.11279969151892
HUBBLE
1 20580U 90037B 12019.25301921 .00001548 00000-0 10243-3 0 9250
2 20580 028.4706 044.4221 0003386 255.5194 104.4972 15.02106640992161
ISS
1 25544U 98067A 12019.95123964 .00015195 00000-0 19689-3 0 8527
2 25544 051.6419 150.6937 0021741 299.7667 159.1394 15.58830540754748
CO-58
1 28895U 05043F 12018.63830026 .00000548 00000-0 12208-3 0 763
2 28895 097.9370 251.3455 0016728 263.6475 096.2810 14.60447244331684
FALCON
1 30776U 07006E 12019.66030452 .00003357 00000-0 22585-3 0 2632
2 30776 035.4324 109.3477 0001728 164.2745 195.8026 15.06421842267687
MAST
1 31126U 07012K 12019.55519923 .00000399 00000-0 99618-4 0 3627
2 31126 097.8807 039.3823 0093097 216.6993 142.7796 14.54009120252524
CAPE1
1 31130U 07012P 12018.70531307 .00000473 00000-0 11841-3 0 3734
2 31130 097.8873 035.0754 0100861 231.3900 127.8153 14.52736719251921
COMPASS
1 32787U 08021E 12019.08222452 .00002273 00000-0 28284-3 0 2002
2 32787 097.8209 083.6584 0015212 188.3387 171.7609 14.83411905201557
AAUSAT2
1 32788U 08021F 12019.08186031 .00002360 00000-0 29151-3 0 1904
2 32788 097.8235 083.9655 0014988 187.2382 172.8632 14.83681495201574
DO-64
1 32789U 08021G 12019.05679726 .00002791 00000-0 33485-3 0 2061
2 32789 097.8327 085.4494 0014930 186.0137 174.0896 14.84761562201590
CO-66
1 32791U 08021J 12019.08571033 .00002015 00000-0 25438-3 0 1943
2 32791 097.8227 083.5096 0015475 188.1135 171.9854 14.82934738201499
RS-30
1 32953U 08025A 12019.50109705 .00000010 00000-0 00000 0 0 4486
2 32953 082.5004 028.2202 0017587 275.5231 084.3848 12.43020120165969
TACSAT-3
1 35001U 09028A 12019.88224883 .00078579 00000-0 64840-3 0 8376
2 35001 040.4502 283.1829 0007442 292.0072 068.0002 15.69259585150847
PHARMSAT
1 35002U 09028B 12019.12487319 .00043189 00000-0 46676-3 0 7701
2 35002 040.4676 290.2498 0007387 017.3787 342.7802 15.62627700150706
HAWKSAT1
1 35003U 09028C 11276.79285837 .02274821 58283-2 19360-2 0 8114
2 35003 040.4398 174.3672 0011414 274.3918 085.3844 16.13812532134570
CP6
1 35004U 09028D 11247.64656856 .16152067 73217-5 10011-2 0 7842
2 35004 040.4403 342.9642 0002956 038.0069 322.2231 16.41039951130139
METEOR-M
1 35865U 09049A 12019.75320813 -.00000011 00000-0 14802-4 0 792
2 35865 098.6768 076.7329 0003099 115.0103 245.1410 14.21853912121365
RS-38
1 35869U 09049E 12019.79570369 .00000018 00000-0 27803-4 0 761
2 35869 098.6743 076.7927 0005264 118.7773 241.3927 14.22050242121384
ARISSAT1
1 37772U 98067CK 12004.04884568 .13494171 12416-4 77857-3 0 4794
2 37772 051.6129 213.1240 0007478 255.9283 104.1611 16.41716225 24077
JUGNU
1 37839U 11058B 12018.79217997 .00000619 00000-0 19019-3 0 718
2 37839 019.9595 189.3324 0019762 008.1532 351.9086 14.12017961 13967
SRMSAT
1 37841U 11058D 12018.85471115 .00000264 00000-0 00000 0 0 714
2 37841 019.9714 190.8786 0011907 338.7752 021.2198 14.10108963 13941
RAX-2
1 37853U 11061D 12019.91531190 .00005266 00000-0 43189-3 0 748
2 37853 101.7091 352.3333 0251791 055.9848 306.4999 14.78488506 12322
AUBIESAT
1 37854U 11061E 12018.88838242 .00005084 00000-0 41132-3 0 757
2 37854 101.7118 350.9164 0253649 058.5157 304.0576 14.78718259 12163
HRBE
1 37855U 11061F 12019.83797826 .00005293 00000-0 42776-3 0 753
2 37855 101.7131 352.2862 0253992 055.6439 306.8516 14.78669272 12301
